Location: Gouy
(50.0008°N, 3.2556°E)
Time: 11:28:42
(UTC+00:00)

Cosmos 1703 Rocket - Pass Details

Date: 14 October 2024
Orbit: 600 x 629 km, 82.5° (Epoch: 06 November)

Event Time Altitude Azimuth Distance (km) Brightness Sun altitude
Rises 05:25:51 0° 137° (SE) 2,903 7.8 -7.5°
Reaches altitude 10° 05:29:07 10° 111° (ESE) 1,998 7.6 -7.0°
Maximum altitude 05:31:15 14° 82° (E) 1,775 7.4 -6.6°
Drops below altitude 10° 05:33:25 10° 53° (NE) 1,998 6.9 -6.3°
Sets 05:36:40 0° 27° (NNE) 2,903 7.3 -5.8°
